[[{"header":{"parameterUnit":"m.s-1","parameterCategory":1,"la1":30.2991,"la2":30.254,"lo1":-89.0895,"lo2":-89.0444,"dy":0.0017,"dx":0.0017,"nx":28,"ny":28,"refTime":"2024-02-10T09:00:00:Z","depth":0,"parameterNumber":2,"parameterNumberName":"U-component_of_WINDS"},"data":[0,0,0,0,0,0,0,0,0,0,0,0,0,0,0,0,0,0,0,0,0,0,0,0,0,0,0,0,0,0,0,0,0,0,0,0,0,0,0,0,0,0,0,0,0,0,0,0,0,0,0,0,0,0,0,0,0,0,-1.4808,-1.4808,0,-1.478,-1.4779,-1.4779,-1.473,-1.4729,-1.4728,-1.4727,-1.4698,-1.4698,-1.4698,0,0,0,0,0,0,0,0,0,0,0,0,0,-1.482,-1.482,-1.4808,-1.4808,-1.4807,-1.478,-1.4779,-1.4779,-1.473,-1.4729,-1.4727,-1.4726,-1.4698,-1.4698,-1.4698,0,0,0,0,0,0,0,0,0,0,0,0,0,-1.4805,-1.482,-1.4808,-1.4779,-1.4777,-1.478,-1.4779,-1.4779,-1.473,-1.4729,-1.4727,-1.4726,-1.4698,-1.4698,-1.4698,-1.4727,0,0,-1.4698,-1.4698,0,0,0,0,0,0,0,0,-1.4806,-1.4805,-1.4784,-1.4781,-1.4778,-1.4757,-1.4773,-1.4761,-1.473,-1.4748,-1.4727,-1.4725,-1.4718,-1.4717,-1.4715,-1.4725,-1.4724,-1.4698,-1.4698,-1.4698,-1.4699,0,0,0,0,0,0,0,-1.4807,-1.4806,-1.4797,-1.4784,-1.478,-1.4768,-1.4765,-1.477,-1.4741,-1.4746,-1.4742,-1.474,-1.4717,-1.4715,-1.4714,-1.4724,-1.4698,-1.4698,-1.4699,-1.4699,-1.4757,-1.4758,0,0,0,0,0,0,-1.4813,-1.4807,-1.4798,-1.4796,-1.4789,-1.4769,-1.4765,-1.4765,-1.4741,-1.4736,-1.4741,-1.4738,-1.4715,-1.4713,-1.4712,-1.4744,-1.4698,-1.4699,-1.4699,-1.4756,-1.4757,-1.4759,0,0,0,0,0,0,-1.4813,-1.4812,-1.4799,-1.4801,-1.4798,-1.477,-1.4771,-1.4765,-1.4763,-1.4737,-1.4732,-1.4744,-1.4714,-1.4712,-1.4724,-1.4742,-1.4699,-1.4699,-1.4754,-1.4756,-1.4758,-1.4808,0,0,0,0,0,0,-1.4814,-1.4813,-1.4823,-1.4801,-1.4798,-1.4811,-1.4772,-1.4766,-1.4763,-1.4759,-1.4739,-1.4734,-1.4713,-1.4724,-1.4724,-1.4742,-1.4699,-1.4752,-1.4755,-1.4757,-1.4804,-1.4812,-1.4818,0,0,0,0,0,-1.4814,-1.4838,-1.4824,-1.4823,-1.4811,-1.4812,-1.481,-1.4785,-1.4765,-1.4775,-1.4759,-1.4735,-1.4741,-1.4725,-1.4725,-1.4743,-1.4751,-1.4754,-1.4757,-1.4801,-1.481,-1.4817,0,0,0,0,0,0,-1.4863,-1.4835,-1.4818,-1.4836,-1.4827,-1.4803,-1.4815,-1.4795,-1.479,-1.4786,-1.4755,-1.4751,-1.4767,-1.4756,-1.4739,-1.477,-1.4742,-1.4745,-1.4776,-1.4784,-1.479,-1.4791,-1.4699,0,0,0,0,0,-1.4876,-1.4879,-1.4854,-1.4872,-1.4868,-1.4843,-1.4843,-1.4824,-1.4813,-1.4809,-1.4793,-1.4783,-1.4783,-1.4783,-1.4781,-1.4804,-1.4798,-1.4816,-1.4823,-1.4828,-1.4831,-1.4841,-1.4849,-1.477,-1.477,-1.477,0,0,-1.4902,-1.4887,-1.4891,-1.4882,-1.4872,-1.4876,-1.484,-1.4846,-1.4848,-1.4809,-1.4819,-1.4808,-1.4795,-1.4812,-1.4818,-1.4803,-1.4852,-1.4832,-1.4837,-1.4837,-1.4846,-1.4853,-1.486,-1.4772,-1.4772,-1.4771,0,0,-1.4951,-1.4941,-1.4954,-1.4946,-1.4932,-1.4915,-1.4919,-1.4899,-1.489,-1.4899,-1.487,-1.4873,-1.4873,-1.4865,-1.4861,-1.4909,-1.4886,-1.491,-1.4943,-1.4954,-1.496,-1.4966,-1.4982,-1.4988,-1.4913,-1.4913,-1.4913,0,-1.4985,-1.499,-1.4964,-1.4971,-1.4968,-1.4934,-1.4948,-1.4941,-1.4928,-1.4926,-1.491,-1.491,-1.4899,-1.4913,-1.4925,-1.4923,-1.4926,-1.4911,-1.4962,-1.4967,-1.4971,-1.4986,-1.4992,-1.4916,-1.4916,-1.4915,-1.4915,0,-1.5032,-1.5036,-1.5049,-1.5037,-1.5035,-1.5046,-1.5022,-1.5023,-1.5006,-1.4991,-1.5001,-1.4987,-1.4982,-1.4984,-1.4967,-1.4996,-1.4987,-1.4967,-1.4938,-1.4982,-1.4995,-1.5001,-1.492,-1.4919,-1.4918,-1.4917,0,0,-1.5109,-1.5084,-1.5089,-1.5083,-1.5066,-1.5068,-1.5078,-1.5073,-1.5075,-1.5067,-1.5074,-1.5076,-1.5057,-1.5052,-1.5034,-1.5044,-1.5082,-1.5022,-1.5022,-1.5033,-1.5112,-1.5126,-1.5133,-1.5068,-1.5069,-1.507,-1.5113,0,-1.5154,-1.5168,-1.5145,-1.5164,-1.5167,-1.5136,-1.5145,-1.5135,-1.5122,-1.5123,-1.5109,-1.511,-1.5086,-1.5083,-1.5091,-1.5076,-1.5097,-1.5073,-1.5073,-1.5073,-1.5075,-1.5141,-1.5155,-1.5197,-1.5118,-1.5119,-1.512,0,-1.5207,-1.5202,-1.5222,-1.5204,-1.5204,-1.5212,-1.5206,-1.5207,-1.5197,-1.5186,-1.5182,-1.5161,-1.5169,-1.5143,-1.5153,-1.5137,-1.5136,-1.5129,-1.513,-1.5127,-1.5098,-1.5138,-1.5209,-1.5215,-1.5128,-1.5127,-1.5127,0,-1.5259,-1.5258,-1.5269,-1.5266,-1.5246,-1.5252,-1.5244,-1.5232,-1.523,-1.5225,-1.5224,-1.522,-1.5218,-1.5216,-1.5194,-1.5177,-1.5207,-1.5179,-1.5198,-1.5198,-1.5204,-1.5203,-1.5274,-1.5207,-1.5207,-1.5206,-1.5206,0,-1.531,-1.5323,-1.5293,-1.5299,-1.5313,-1.5288,-1.5302,-1.5291,-1.5281,-1.5285,-1.5259,-1.5263,-1.5236,-1.5237,-1.5221,-1.5231,-1.5231,-1.5223,-1.5218,-1.5224,-1.5225,-1.5221,-1.5217,-1.5208,-1.5208,-1.5207,-1.5207,0,-1.537,-1.535,-1.536,-1.5341,-1.5337,-1.5347,-1.5331,-1.5336,-1.5323,-1.5328,-1.5328,-1.5306,-1.5307,-1.5286,-1.5282,-1.5271,-1.5288,-1.5279,-1.5292,-1.5288,-1.5308,-1.5306,-1.5377,-1.5385,-1.5315,-1.5315,-1.5316,0,-1.5402,-1.5412,-1.5394,-1.5395,-1.5388,-1.539,-1.5389,-1.5365,-1.5365,-1.5354,-1.536,-1.5359,-1.5356,-1.5359,-1.5342,-1.534,-1.5329,-1.5355,-1.5328,-1.5334,-1.5328,-1.5326,-1.5327,-1.5359,-1.536,-1.5361,-1.5361,0,-1.5462,-1.5452,-1.5451,-1.5447,-1.5446,-1.5442,-1.5436,-1.5438,-1.5412,-1.5414,-1.5414,-1.5412,-1.5409,-1.5407,-1.5402,-1.5394,-1.5373,-1.537,-1.5374,-1.5379,-1.5386,-1.5381,-1.5305,-1.5368,-1.5367,-1.5367,-1.5367,-1.5366,-1.5508,-1.5515,-1.5503,-1.5503,-1.5496,-1.5491,-1.5495,-1.5482,-1.5482,-1.5478,-1.5464,-1.5467,-1.5456,-1.5447,-1.5441,-1.5442,-1.543,-1.5436,-1.5437,-1.5438,-1.5441,-1.5387,-1.5442,-1.5441,-1.5441,-1.5441,-1.5441,0,-1.5565,-1.5556,-1.5557,-1.5549,-1.5549,-1.5531,-1.5524,-1.5525,-1.5528,-1.552,-1.5518,-1.5519,-1.5518,-1.5502,-1.5499,-1.5503,-1.5494,-1.5503,-1.5501,-1.55,-1.5454,-1.545,-1.5511,-1.5511,-1.5511,-1.5511,-1.5511,-1.5511,-1.5594,-1.5604,-1.5593,-1.56,-1.5591,-1.5593,-1.5591,-1.5586,-1.558,-1.5582,-1.5581,-1.5571,-1.556,-1.5556,-1.5554,-1.555,-1.5549,-1.5561,-1.5553,-1.551,-1.5503,-1.5497,-1.5493,-1.5562,-1.5562,-1.5599,-1.56,-1.56]},{"header":{"parameterUnit":"m.s-1","parameterCategory":1,"la1":30.2991,"la2":30.254,"lo1":-89.0895,"lo2":-89.0444,"dy":0.0017,"dx":0.0017,"nx":28,"ny":28,"refTime":"2024-02-10T09:00:00:Z","depth":0,"parameterNumber":3,"parameterNumberName":"V-component_of_WINDS"},"data":[0,0,0,0,0,0,0,0,0,0,0,0,0,0,0,0,0,0,0,0,0,0,0,0,0,0,0,0,0,0,0,0,0,0,0,0,0,0,0,0,0,0,0,0,0,0,0,0,0,0,0,0,0,0,0,0,0,0,1.6997,1.6997,0,1.6995,1.6995,1.6995,1.7026,1.7027,1.7028,1.7029,1.7024,1.7023,1.7022,0,0,0,0,0,0,0,0,0,0,0,0,0,1.7029,1.7029,1.6997,1.6997,1.6997,1.6995,1.6995,1.6995,1.7026,1.7027,1.7028,1.7029,1.7024,1.7023,1.7022,0,0,0,0,0,0,0,0,0,0,0,0,0,1.702,1.7028,1.6997,1.7013,1.7014,1.6995,1.6995,1.6995,1.7026,1.7027,1.7029,1.703,1.7025,1.7023,1.7022,1.6987,0,0,1.7017,1.7017,0,0,0,0,0,0,0,0,1.702,1.7019,1.7011,1.7012,1.7013,1.7012,1.7004,1.6992,1.7026,1.7021,1.7029,1.703,1.7019,1.7018,1.7014,1.6986,1.6986,1.7017,1.7016,1.7016,1.7015,0,0,0,0,0,0,0,1.7021,1.7019,1.6996,1.701,1.7012,1.702,1.702,1.7002,1.7013,1.7022,1.7024,1.7024,1.702,1.7016,1.7015,1.6986,1.7017,1.7016,1.7015,1.7015,1.6932,1.693,0,0,0,0,0,0,1.702,1.7019,1.6996,1.6996,1.702,1.7018,1.7018,1.7011,1.7013,1.7015,1.7022,1.7025,1.7018,1.7016,1.7014,1.6975,1.7016,1.7014,1.7014,1.6933,1.6931,1.693,0,0,0,0,0,0,1.702,1.7017,1.6996,1.7008,1.7006,1.7016,1.7008,1.701,1.7007,1.7013,1.7015,1.7016,1.7019,1.7016,1.6994,1.6975,1.7014,1.7012,1.6935,1.6933,1.6931,1.6895,0,0,0,0,0,0,1.7021,1.7017,1.7004,1.7008,1.7006,1.6976,1.7007,1.7009,1.7004,1.7008,1.7008,1.701,1.7019,1.6996,1.6993,1.6974,1.7011,1.6936,1.6934,1.6931,1.6898,1.6892,1.6887,0,0,0,0,0,1.7022,1.6993,1.7003,1.7,1.6989,1.6975,1.6974,1.6986,1.7003,1.6989,1.6994,1.701,1.6978,1.6993,1.699,1.6971,1.6938,1.6934,1.6931,1.69,1.6893,1.6887,0,0,0,0,0,0,1.6985,1.6994,1.7005,1.6977,1.6975,1.698,1.6964,1.6978,1.697,1.6974,1.6989,1.6989,1.6964,1.6965,1.6982,1.6938,1.6961,1.6957,1.6938,1.6932,1.6926,1.6927,1.701,0,0,0,0,0,1.6974,1.6962,1.697,1.6944,1.6943,1.6954,1.6948,1.6958,1.6956,1.6955,1.6959,1.6956,1.6946,1.6939,1.693,1.6898,1.69,1.6884,1.6878,1.6874,1.687,1.6856,1.6849,1.692,1.692,1.692,0,0,1.6951,1.6954,1.6945,1.6937,1.6937,1.6925,1.6953,1.6938,1.6929,1.6953,1.6933,1.6935,1.6933,1.6907,1.6896,1.6907,1.6851,1.687,1.6866,1.6865,1.6852,1.6845,1.6839,1.6918,1.6918,1.6919,0,0,1.6901,1.6902,1.6882,1.6882,1.6882,1.6889,1.6885,1.6888,1.6891,1.6871,1.689,1.6879,1.6861,1.686,1.6857,1.681,1.6824,1.6806,1.6778,1.6764,1.6758,1.6753,1.6738,1.6732,1.6803,1.6803,1.6802,0,1.6872,1.6854,1.6869,1.6854,1.685,1.6873,1.6853,1.6852,1.6849,1.6846,1.6859,1.6838,1.6838,1.6813,1.6802,1.6798,1.6794,1.6806,1.6758,1.6753,1.6749,1.6734,1.6728,1.68,1.6801,1.6801,1.6801,0,1.6818,1.6806,1.6789,1.6787,1.6782,1.6764,1.6777,1.6769,1.678,1.6787,1.6767,1.6769,1.6761,1.6756,1.6766,1.6733,1.674,1.6755,1.6778,1.674,1.6726,1.6721,1.6798,1.6798,1.6799,1.6799,0,0,1.6744,1.6753,1.6747,1.6747,1.675,1.6741,1.6724,1.6718,1.6713,1.671,1.6697,1.6682,1.6697,1.6694,1.6704,1.6691,1.6656,1.6708,1.6708,1.6699,1.6622,1.6611,1.6604,1.6666,1.6665,1.6664,1.6622,0,1.6698,1.6671,1.6685,1.6657,1.6647,1.6669,1.6655,1.6656,1.6662,1.6654,1.666,1.665,1.6669,1.6668,1.6657,1.6663,1.6641,1.6666,1.6655,1.6654,1.6655,1.6597,1.6585,1.6545,1.6617,1.6616,1.6615,0,1.6639,1.6636,1.6607,1.6614,1.661,1.6598,1.6594,1.6586,1.6588,1.6593,1.6591,1.6604,1.6589,1.6613,1.6593,1.661,1.6606,1.6609,1.6607,1.6607,1.6633,1.6596,1.6533,1.6527,1.6607,1.6608,1.6608,0,1.659,1.6578,1.656,1.656,1.6567,1.6558,1.656,1.6563,1.656,1.6557,1.6555,1.6549,1.6547,1.6543,1.6555,1.657,1.6534,1.6558,1.6539,1.6538,1.653,1.6531,1.6466,1.6526,1.6526,1.6527,1.6527,0,1.6537,1.6518,1.6539,1.6527,1.6508,1.6525,1.6505,1.651,1.6513,1.6503,1.6522,1.6513,1.6529,1.6522,1.6531,1.6514,1.6512,1.6517,1.652,1.6516,1.6515,1.6514,1.6517,1.6525,1.6525,1.6526,1.6526,0,1.6479,1.6491,1.6473,1.6483,1.6485,1.647,1.6478,1.6468,1.6476,1.6464,1.6462,1.6474,1.6467,1.6479,1.6472,1.6479,1.6456,1.6462,1.6456,1.6458,1.6439,1.6441,1.6372,1.6364,1.6428,1.6427,1.6427,0,1.6444,1.6431,1.644,1.6435,1.6437,1.6429,1.6426,1.6443,1.6439,1.6441,1.6431,1.6425,1.6421,1.6408,1.6416,1.6412,1.6419,1.6395,1.6418,1.6415,1.642,1.6421,1.642,1.639,1.639,1.6389,1.6388,0,1.6382,1.639,1.6385,1.6383,1.6379,1.6378,1.6378,1.6373,1.639,1.6385,1.6378,1.6375,1.637,1.6364,1.6362,1.6365,1.638,1.6381,1.6377,1.6373,1.637,1.6373,1.6444,1.6383,1.6383,1.6384,1.6384,1.6384,1.6336,1.6326,1.6331,1.6326,1.6328,1.6328,1.632,1.6328,1.6323,1.632,1.633,1.6321,1.6325,1.6324,1.6325,1.6319,1.6329,1.6322,1.6321,1.6319,1.6317,1.6371,1.6318,1.6318,1.6319,1.6319,1.6319,0,1.6276,1.6281,1.6276,1.6276,1.6272,1.6288,1.629,1.6285,1.6277,1.628,1.6277,1.627,1.6265,1.6273,1.627,1.6264,1.627,1.6262,1.6263,1.6264,1.6307,1.6312,1.6257,1.6257,1.6257,1.6257,1.6257,1.6257,1.6244,1.6229,1.6237,1.6224,1.6229,1.6222,1.6221,1.6222,1.6224,1.6216,1.6213,1.6219,1.6224,1.6222,1.6219,1.6221,1.622,1.6209,1.6214,1.6254,1.6261,1.6266,1.6271,1.6208,1.6208,1.6172,1.6172,1.6172]}]]